Location: Elbart
(49.6135°N, 11.9134°E)
Time: 08:36:22
(UTC+00:00)

ATLAS 5 CENTAUR R/B - Pass Details

Date: 09 April 2020
Orbit: 543 x 1116 km, 63.4° (Epoch: 01 May)

Event Time Altitude Azimuth Distance (km) Brightness Sun altitude
Rises 21:45:56 0° 282° (WNW) 2,884 5.5 -29.3°
Reaches altitude 10° 21:48:40 10° 301° (WNW) 2,060 4.9 -29.5°
Maximum altitude 21:52:03 19° 348° (NNW) 1,629 4.4 -29.7°
Drops below altitude 10° 21:55:49 10° 34° (NE) 2,311 4.8 -29.9°
Sets 21:59:07 0° 51° (NE) 3,365 5.5 -30.1°
